| time (UTC) | temp F | wind direction | speed MPH | gust MPH | rain 1hr in | rain 24hr in | rain mn in | humidity % | barometer mb |
| 20260506175544 | 54 | 202 | 2.0 | 5.0 | 0.01 | 0.03 | 0.01 | 90 | 1008.7 |
| 20260506174544 | 54 | 225 | 2.0 | 5.0 | 0.01 | 0.03 | 0.01 | 89 | 1008.5 |
| 20260506173544 | 54 | 225 | 3.0 | 7.0 | 0.01 | 0.03 | 0.01 | 89 | 1008.5 |
| 20260506172544 | 54 | 225 | 3.0 | 8.0 | 0.01 | 0.03 | 0.01 | 89 | 1008.4 |
| 20260506171544 | 54 | 225 | 3.0 | 6.0 | 0.01 | 0.03 | 0.01 | 89 | 1008.2 |
| 20260506170546 | 55 | 225 | 2.0 | 5.0 | 0.01 | 0.03 | 0.01 | 89 | 1008.1 |
| 20260506165546 | 55 | 225 | 2.0 | 5.0 | 0.00 | 0.03 | 0.00 | 88 | 1008.2 |
| 20260506164544 | 55 | 248 | 4.0 | 7.0 | 0.00 | 0.03 | 0.00 | 87 | 1008.2 |
| 20260506163544 | 55 | 248 | 5.0 | 11.0 | 0.00 | 0.03 | 0.00 | 87 | 1008.3 |
| 20260506162544 | 55 | 248 | 5.0 | 11.0 | 0.00 | 0.03 | 0.00 | 86 | 1008.3 |
| 20260506161546 | 55 | 248 | 5.0 | 11.0 | 0.00 | 0.03 | 0.00 | 87 | 1008.2 |
| 20260506160546 | 55 | 248 | 5.0 | 9.0 | 0.00 | 0.03 | 0.00 | 87 | 1008.2 |
| 20260506155546 | 55 | 248 | 5.0 | 10.0 | 0.00 | 0.03 | 0.00 | 87 | 1008.1 |
| 20260506154546 | 55 | 270 | 3.0 | 8.0 | 0.00 | 0.03 | 0.00 | 87 | 1008.0 |
| 20260506153546 | 55 | 270 | 3.0 | 8.0 | 0.00 | 0.03 | 0.00 | 87 | 1008.0 |
| 20260506152546 | 55 | 270 | 4.0 | 9.0 | 0.00 | 0.03 | 0.00 | 87 | 1008.0 |
| 20260506151546 | 55 | 292 | 4.0 | 12.0 | 0.00 | 0.03 | 0.00 | 87 | 1007.8 |
| 20260506150546 | 55 | 292 | 7.0 | 14.0 | 0.00 | 0.03 | 0.00 | 87 | 1007.7 |
| 20260506145546 | 55 | 292 | 8.0 | 14.0 | 0.00 | 0.05 | 0.00 | 87 | 1007.6 |
| 20260506144546 | 55 | 292 | 8.0 | 15.0 | 0.00 | 0.05 | 0.00 | 86 | 1007.5 |
| 20260506143546 | 56 | 270 | 11.0 | 21.0 | 0.00 | 0.05 | 0.00 | 85 | 1007.6 |
| 20260506142544 | 56 | 270 | 12.0 | 19.0 | 0.00 | 0.05 | 0.00 | 82 | 1007.6 |
| 20260506141544 | 58 | 270 | 11.0 | 22.0 | 0.00 | 0.05 | 0.00 | 78 | 1007.5 |
| 20260506140544 | 62 | 270 | 5.0 | 9.0 | 0.00 | 0.05 | 0.00 | 76 | 1007.1 |
| 20260506135544 | 62 | 270 | 4.0 | 8.0 | 0.00 | 0.09 | 0.00 | 71 | 1007.0 |
| 20260506134544 | 62 | 292 | 3.0 | 7.0 | 0.00 | 0.09 | 0.00 | 71 | 1006.9 |
| 20260506133544 | 63 | 292 | 4.0 | 7.0 | 0.00 | 0.09 | 0.00 | 69 | 1006.8 |
| 20260506132544 | 63 | 292 | 3.0 | 6.0 | 0.00 | 0.09 | 0.00 | 70 | 1006.8 |
| 20260506131544 | 64 | 315 | 2.0 | 5.0 | 0.00 | 0.09 | 0.00 | 67 | 1006.7 |
| 20260506130544 | 64 | 315 | 0.0 | 1.0 | 0.00 | 0.09 | 0.00 | 65 | 1006.6 |
| 20260506125544 | 64 | 315 | 2.0 | 4.0 | 0.00 | 0.17 | 0.00 | 65 | 1006.5 |
| 20260506124544 | 65 | 180 | 1.0 | 4.0 | 0.00 | 0.17 | 0.00 | 64 | 1006.5 |
| 20260506123735 | 65 | 135 | 1.0 | 4.0 | 0.00 | 0.17 | 0.00 | 62 | 1006.4 |
| 20260506122735 | 65 | 135 | 2.0 | 4.0 | 0.00 | 0.17 | 0.00 | 64 | 1006.6 |
| 20260506121735 | 65 | 112 | 3.0 | 7.0 | 0.00 | 0.17 | 0.00 | 65 | 1006.5 |
| 20260506120735 | 65 | 112 | 3.0 | 8.0 | 0.00 | 0.17 | 0.00 | 66 | 1006.7 |
| 20260506115735 | 65 | 112 | 4.0 | 9.0 | 0.00 | 0.17 | 0.00 | 67 | 1006.8 |
| 20260506114735 | 65 | 112 | 3.0 | 8.0 | 0.00 | 0.17 | 0.00 | 65 | 1006.8 |
| 20260506113735 | 66 | 158 | 2.0 | 5.0 | 0.00 | 0.17 | 0.00 | 64 | 1006.6 |
| 20260506112735 | 66 | 180 | 2.0 | 5.0 | 0.00 | 0.17 | 0.00 | 65 | 1006.7 |
| 20260506111735 | 66 | 202 | 2.0 | 6.0 | 0.00 | 0.17 | 0.00 | 66 | 1006.8 |
| 20260506110735 | 65 | 202 | 1.0 | 4.0 | 0.00 | 0.17 | 0.00 | 64 | 1007.1 |
| 20260506105735 | 64 | 270 | 3.0 | 6.0 | 0.00 | 0.17 | 0.00 | 66 | 1007.1 |
| 20260506104735 | 63 | 22 | 3.0 | 6.0 | 0.00 | 0.17 | 0.00 | 68 | 1007.1 |
| 20260506103735 | 63 | 22 | 2.0 | 7.0 | 0.00 | 0.17 | 0.00 | 68 | 1007.2 |
| 20260506102735 | 63 | 338 | 3.0 | 8.0 | 0.00 | 0.17 | 0.00 | 68 | 1007.4 |
| 20260506101735 | 63 | 360 | 4.0 | 7.0 | 0.00 | 0.17 | 0.00 | 69 | 1007.4 |
| 20260506100733 | 63 | 360 | 3.0 | 7.0 | 0.00 | 0.17 | 0.00 | 69 | 1007.4 |
| 20260506095733 | 64 | 158 | 1.0 | 5.0 | 0.00 | 0.17 | 0.00 | 66 | 1007.5 |
| 20260506094734 | 64 | 202 | 2.0 | 5.0 | 0.00 | 0.17 | 0.00 | 65 | 1007.6 |
| 20260506093734 | 64 | 270 | 2.0 | 6.0 | 0.00 | 0.17 | 0.00 | 65 | 1007.5 |
| 20260506092734 | 63 | 248 | 2.0 | 6.0 | 0.00 | 0.17 | 0.00 | 65 | 1007.6 |
| 20260506091540 | 64 | 158 | 1.0 | 4.0 | 0.00 | 0.17 | 0.00 | 65 | 1007.5 |
| 20260506090540 | 63 | 180 | 1.0 | 6.0 | 0.00 | 0.17 | 0.00 | 64 | 1007.5 |
| 20260506085540 | 63 | 180 | 1.0 | 6.0 | 0.00 | 0.17 | 0.00 | 69 | 1007.5 |
| 20260506084540 | 63 | 225 | 3.0 | 5.0 | 0.00 | 0.17 | 0.00 | 69 | 1007.6 |
| 20260506083540 | 62 | 338 | 2.0 | 4.0 | 0.00 | 0.17 | 0.00 | 70 | 1007.7 |
| 20260506082540 | 62 | 270 | 2.0 | 5.0 | 0.00 | 0.17 | 0.00 | 71 | 1007.7 |
| 20260506081538 | 62 | 248 | 3.0 | 7.0 | 0.00 | 0.17 | 0.00 | 72 | 1007.7 |
| 20260506080538 | 62 | 180 | 3.0 | 8.0 | 0.00 | 0.17 | 0.00 | 73 | 1007.8 |
| 20260506072538 | 58 | 180 | 2.0 | 8.0 | 0.00 | 0.17 | 0.00 | 82 | 1007.8 |
| 20260506071538 | 57 | 158 | 2.0 | 4.0 | 0.00 | 0.17 | 0.00 | 82 | 1007.8 |
| 20260506070538 | 56 | 180 | 1.0 | 4.0 | 0.00 | 0.17 | 0.00 | 83 | 1007.7 |
| 20260506061827 | 54 | 180 | 1.0 | 5.0 | 0.00 | 0.17 | 0.00 | 91 | 1008.0 |
| 20260506060826 | 53 | 158 | 0.0 | 2.0 | 0.00 | 0.17 | 0.00 | 92 | 1008.0 |
| 20260506060542 | 53 | 158 | 0.0 | 2.0 | 0.00 | 0.17 | 0.00 | 92 | 1008.0 |
| 20260506050542 | 50 | 0 | 0.0 | 0.0 | 0.00 | 0.17 | 0.00 | 91 | 1008.0 |
| 20260506044542 | 50 | 0 | 0.0 | 0.0 | 0.00 | 0.17 | 0.00 | 91 | 1008.0 |
| 20260506043542 | 50 | 180 | 0.0 | 1.0 | 0.00 | 0.17 | 0.00 | 91 | 1008.0 |
| 20260506042542 | 51 | 180 | 1.0 | 2.0 | 0.00 | 0.17 | 0.00 | 91 | 1008.0 |
| 20260506041542 | 51 | 180 | 1.0 | 4.0 | 0.00 | 0.17 | 0.00 | 91 | 1008.1 |
| 20260506040542 | 51 | 180 | 1.0 | 3.0 | 0.00 | 0.17 | 0.00 | 91 | 1008.2 |
| 20260506035542 | 51 | 180 | 1.0 | 3.0 | 0.00 | 0.17 | 0.00 | 90 | 1008.2 |
| 20260506034542 | 51 | 180 | 1.0 | 3.0 | 0.00 | 0.17 | 0.00 | 90 | 1008.2 |
| 20260506033542 | 51 | 180 | 0.0 | 1.0 | 0.00 | 0.17 | 0.00 | 90 | 1008.2 |
| 20260506032542 | 51 | 180 | 1.0 | 3.0 | 0.00 | 0.17 | 0.00 | 90 | 1008.1 |
| 20260506031542 | 51 | 180 | 0.0 | 2.0 | 0.00 | 0.17 | 0.00 | 90 | 1008.1 |
| 20260506030542 | 51 | 0 | 0.0 | 0.0 | 0.00 | 0.17 | 0.00 | 90 | 1008.1 |
| 20260506025542 | 51 | 0 | 0.0 | 0.0 | 0.00 | 0.17 | 0.00 | 90 | 1008.2 |
| 20260506024541 | 52 | 180 | 0.0 | 2.0 | 0.00 | 0.17 | 0.00 | 90 | 1008.2 |
| 20260506023542 | 52 | 180 | 2.0 | 6.0 | 0.00 | 0.17 | 0.00 | 91 | 1008.4 |
| 20260506022541 | 52 | 180 | 2.0 | 4.0 | 0.00 | 0.17 | 0.00 | 91 | 1008.8 |
| 20260506021541 | 52 | 158 | 2.0 | 4.0 | 0.00 | 0.17 | 0.00 | 91 | 1008.7 |
| 20260506020541 | 52 | 180 | 2.0 | 6.0 | 0.00 | 0.17 | 0.00 | 90 | 1008.7 |
| 20260506015541 | 52 | 180 | 1.0 | 3.0 | 0.00 | 0.17 | 0.00 | 91 | 1008.7 |
| 20260506014541 | 52 | 180 | 3.0 | 5.0 | 0.00 | 0.17 | 0.00 | 91 | 1008.7 |
| 20260506013541 | 52 | 202 | 3.0 | 6.0 | 0.00 | 0.17 | 0.00 | 91 | 1008.6 |
| 20260506012541 | 52 | 180 | 2.0 | 5.0 | 0.00 | 0.17 | 0.00 | 91 | 1008.7 |
| 20260506011541 | 52 | 180 | 3.0 | 6.0 | 0.00 | 0.17 | 0.00 | 91 | 1008.6 |
| 20260506010541 | 52 | 180 | 3.0 | 5.0 | 0.00 | 0.17 | 0.00 | 91 | 1008.7 |
| 20260506005541 | 52 | 180 | 2.0 | 5.0 | 0.00 | 0.17 | 0.00 | 91 | 1008.7 |
| 20260506004541 | 52 | 180 | 2.0 | 5.0 | 0.00 | 0.17 | 0.00 | 91 | 1008.7 |
| 20260506003543 | 52 | 158 | 2.0 | 5.0 | 0.00 | 0.17 | 0.00 | 91 | 1008.8 |
| 20260506002543 | 52 | 158 | 1.0 | 5.0 | 0.00 | 0.17 | 0.00 | 91 | 1008.9 |
| 20260506001544 | 52 | 180 | 1.0 | 5.0 | 0.00 | 0.17 | 0.00 | 91 | 1009.0 |
| 20260506000543 | 53 | 180 | 1.0 | 3.0 | 0.00 | 0.17 | 0.00 | 91 | 1009.2 |
| 20260505235543 | 53 | 180 | 2.0 | 5.0 | 0.00 | 0.17 | 0.00 | 91 | 1009.2 |
| 20260505234543 | 53 | 180 | 2.0 | 6.0 | 0.00 | 0.17 | 0.00 | 91 | 1009.3 |
| 20260505233543 | 53 | 180 | 2.0 | 5.0 | 0.00 | 0.17 | 0.00 | 91 | 1009.4 |
| 20260505232543 | 53 | 180 | 2.0 | 4.0 | 0.00 | 0.17 | 0.00 | 92 | 1009.3 |
| 20260505231543 | 53 | 202 | 2.0 | 6.0 | 0.00 | 0.17 | 0.00 | 92 | 1009.3 |
| 20260505230543 | 53 | 202 | 3.0 | 5.0 | 0.00 | 0.17 | 0.00 | 92 | 1009.3 |
| 20260505225544 | 53 | 180 | 4.0 | 7.0 | 0.00 | 0.17 | 0.00 | 92 | 1009.4 |
| 20260505224544 | 53 | 180 | 3.0 | 6.0 | 0.00 | 0.17 | 0.00 | 92 | 1009.4 |
| 20260505223544 | 53 | 180 | 3.0 | 7.0 | 0.00 | 0.17 | 0.00 | 92 | 1009.5 |
| 20260505222544 | 54 | 158 | 2.0 | 5.0 | 0.00 | 0.17 | 0.00 | 92 | 1009.4 |
| 20260505221544 | 54 | 180 | 1.0 | 3.0 | 0.00 | 0.17 | 0.00 | 92 | 1009.2 |
| 20260505220544 | 54 | 180 | 1.0 | 4.0 | 0.00 | 0.17 | 0.00 | 92 | 1009.3 |
| 20260505215543 | 54 | 202 | 2.0 | 4.0 | 0.00 | 0.17 | 0.17 | 92 | 1009.3 |
| 20260505214543 | 54 | 202 | 1.0 | 3.0 | 0.00 | 0.17 | 0.17 | 92 | 1009.5 |
| 20260505213543 | 54 | 202 | 1.0 | 2.0 | 0.00 | 0.17 | 0.17 | 92 | 1009.5 |
| 20260505212543 | 54 | 202 | 2.0 | 3.0 | 0.00 | 0.17 | 0.17 | 92 | 1009.5 |
| 20260505211543 | 54 | 202 | 1.0 | 4.0 | 0.00 | 0.17 | 0.17 | 91 | 1009.5 |
| 20260505210543 | 54 | 202 | 2.0 | 4.0 | 0.00 | 0.17 | 0.17 | 91 | 1009.5 |
| 20260505205543 | 55 | 225 | 4.0 | 7.0 | 0.00 | 0.17 | 0.17 | 91 | 1009.2 |
| 20260505204543 | 55 | 225 | 4.0 | 6.0 | 0.00 | 0.17 | 0.17 | 91 | 1009.3 |
| 20260505203543 | 55 | 225 | 2.0 | 5.0 | 0.00 | 0.17 | 0.17 | 91 | 1009.4 |
| 20260505202543 | 56 | 248 | 3.0 | 7.0 | 0.00 | 0.17 | 0.17 | 91 | 1009.3 |
| 20260505201543 | 56 | 225 | 3.0 | 7.0 | 0.00 | 0.17 | 0.17 | 91 | 1009.0 |
| 20260505200543 | 56 | 225 | 3.0 | 8.0 | 0.00 | 0.17 | 0.17 | 91 | 1008.9 |
| 20260505195543 | 56 | 202 | 3.0 | 5.0 | 0.00 | 0.17 | 0.17 | 91 | 1008.8 |
| 20260505194543 | 56 | 180 | 3.0 | 5.0 | 0.00 | 0.17 | 0.17 | 91 | 1008.6 |
| 20260505193543 | 56 | 180 | 2.0 | 5.0 | 0.00 | 0.17 | 0.17 | 91 | 1008.6 |
| 20260505192543 | 57 | 180 | 1.0 | 5.0 | 0.00 | 0.17 | 0.17 | 90 | 1008.5 |
| 20260505191543 | 57 | 180 | 0.0 | 2.0 | 0.00 | 0.17 | 0.17 | 90 | 1008.5 |
| 20260505190543 | 57 | 180 | 1.0 | 3.0 | 0.01 | 0.17 | 0.17 | 89 | 1008.5 |
| 20260505185543 | 58 | 180 | 1.0 | 4.0 | 0.02 | 0.17 | 0.17 | 89 | 1008.4 |
| 20260505184543 | 58 | 135 | 0.0 | 2.0 | 0.03 | 0.17 | 0.17 | 88 | 1008.6 |
| 20260505183658 | 58 | 135 | 0.0 | 2.0 | 0.03 | 0.17 | 0.17 | 88 | 1008.5 |
| 20260505182658 | 58 | 135 | 0.0 | 1.0 | 0.03 | 0.17 | 0.17 | 88 | 1008.4 |
| 20260505181658 | 59 | 135 | 0.0 | 2.0 | 0.03 | 0.17 | 0.17 | 87 | 1008.3 |
| 20260505180658 | 59 | 135 | 0.0 | 1.0 | 0.02 | 0.16 | 0.16 | 87 | 1008.2 |